Siskiyou Pass Past Weather

Last 30 Days

 
High: 51ºf @10:54 AM    Low: 27ºf @6:54 AM     Approx. Precipitation / Rain Total: in.
Time (PST)Temp. (ºf)Humidity (%)Dew Point (ºf)Barometer (inHG)Wind Speed (mph)Wind DirectionWind Gust (mph)1hr. Precip / Rain Total (in.)Snow Depth
10:54 AM513926.92-4.34sse12.17--
9:54 AM494226.92-4.34sse14.77--
8:54 AM474426.23-4.34se12.17--
7:54 AM346924.92---1.74--
6:54 AM278222.25---5.21--
5:54 AM297522.09---2.61--
4:54 AM317122.72---7.82--
3:54 AM385021.03-5.21ese9.56--
2:54 AM385221.96-3.48se9.56--
1:54 AM297622.4-1.74ene4.34--
12:54 AM307523.05-2.61ne5.21--
High: 56ºf @2:54 PM    Low: 27ºf @5:54 AM     Approx. Precipitation / Rain Total: in.
Time (PST)Temp. (ºf)Humidity (%)Dew Point (ºf)Barometer (inHG)Wind Speed (mph)Wind DirectionWind Gust (mph)1hr. Precip / Rain Total (in.)Snow Depth
11:54 PM317323.38-2.61ne5.21--
10:54 PM317423.7-2.61ne5.21--
9:54 PM346924.92-1.74ne6.08--
8:54 PM346824.57-1.74ne4.34--
7:54 PM376425.97-1.74ne3.48--
6:54 PM425727.88---2.61--
5:54 PM494226.92-1.74nw5.21--
4:54 PM533324.68-2.61nw7.82--
3:54 PM553124.93-2.61wnw6.08--
2:54 PM563125.8-1.74w8.69--
1:54 PM563125.8-1.74wnw8.69--
12:54 PM553427.15-1.74wnw9.56--
11:54 AM513725.65-2.61wnw10.43--
10:54 AM484125.44-2.61wnw7.82--
9:54 AM444624.57-0.87wsw5.21--
8:54 AM385623.72-0.87w6.08--
7:54 AM326722.3-2.61nw8.69--
6:54 AM277921.37-0.87nnw4.34--
5:54 AM277921.37---8.69--
4:54 AM297522.09-0.87n6.95--
3:54 AM307322.41-1.74nnw7.82--
2:54 AM297421.77-0.87nnw8.69--
1:54 AM326621.95-4.34n10.43--
12:54 AM316721.35-1.74ne12.17--
High: 46ºf @1:54 PM    Low: 32ºf @11:54 PM     Approx. Precipitation / Rain Total: in.
Time (PST)Temp. (ºf)Humidity (%)Dew Point (ºf)Barometer (inHG)Wind Speed (mph)Wind DirectionWind Gust (mph)1hr. Precip / Rain Total (in.)Snow Depth
11:54 PM326421.22-2.61ne14.77--
10:54 PM336020.65-4.34nne10.43--
9:54 PM336121.04-3.48nw9.56--
8:54 PM345921.2-3.48nw14.77--
7:54 PM355420.06-6.08nw16.51--
6:54 PM374517.66-5.21nw14.77--
5:54 PM394217.88-6.08nnw15.64--
4:54 PM423818.26-5.21nw17.38--
3:54 PM443518.13-6.08n18.25--
2:54 PM453317.65-6.08nw19.99--
1:54 PM463419.22-6.95nw20.86--
12:54 PM453317.65-6.08nnw19.99--
11:54 AM443820.04-6.95nnw20.86--
10:54 AM424019.45-6.95nnw19.99--
9:54 AM394519.48-5.21nnw20.86--
8:54 AM394720.5-5.21nnw18.25--
7:54 AM365420.99-6.08nnw16.51--
6:54 AM335920.26-4.34nw13.9--
5:54 AM335920.26-5.21nnw16.51--
4:54 AM335719.45-6.08n14.77--
3:54 AM325919.32-5.21n15.64--
2:54 AM326019.71-5.21n18.25--
1:54 AM326019.71-4.34nnw17.38--
12:54 AM336020.65-5.21nnw15.64--
High: 50ºf @12:54 PM    Low: 32ºf @1:54 AM     Approx. Precipitation / Rain Total: in.
Time (PST)Temp. (ºf)Humidity (%)Dew Point (ºf)Barometer (inHG)Wind Speed (mph)Wind DirectionWind Gust (mph)1hr. Precip / Rain Total (in.)Snow Depth
11:54 PM335819.86-4.34nnw14.77--
10:54 PM335920.26-4.34nnw12.17--
9:54 PM345619.97-4.34nnw13.03--
8:54 PM355420.06-4.34nnw12.17--
7:54 PM355420.06-3.48nnw9.56--
6:54 PM355118.72-2.61nnw9.56--
5:54 PM374919.64-4.34n17.38--
4:54 PM414420.78-5.21n16.51--
3:54 PM434623.65-3.48nw16.51--
2:54 PM454927-6.08n16.51--
1:54 PM493421.87-7.82n17.38--
12:54 PM503322.04-5.21nnw18.25--
11:54 AM483823.62-6.95n17.38--
10:54 AM473722.09-4.34n17.38--
9:54 AM453720.31-4.34nnw17.38--
8:54 AM424019.45-7.82n19.12--
7:54 AM385021.03-4.34nnw18.25--
6:54 AM355620.91-5.21nnw17.38--
5:54 AM355620.91-2.61nnw16.51--
4:54 AM355319.62-5.21nnw17.38--
3:54 AM345820.8-6.08n17.38--
2:54 AM346121.98-4.34nnw13.9--
1:54 AM327023.34-4.34nw14.77--
12:54 AM356424.07-6.08nnw17.38--
High: 54ºf @2:54 PM    Low: 22ºf @3:54 AM     Approx. Precipitation / Rain Total: in.
Time (PST)Temp. (ºf)Humidity (%)Dew Point (ºf)Barometer (inHG)Wind Speed (mph)Wind DirectionWind Gust (mph)1hr. Precip / Rain Total (in.)Snow Depth
11:54 PM366324.64-4.34nnw16.51--
10:54 PM395524.22-6.08n17.38--
9:54 PM414320.24-4.34nnw14.77--
8:54 PM415124.27-2.61nnw9.56--
7:54 PM425024.72-2.61nnw13.03--
6:54 PM464224.21-4.34n16.51--
5:54 PM483420.99-4.34nnw15.64--
4:54 PM512919.88-4.34n15.64--
3:54 PM542720.79-6.08n14.77--
2:54 PM542518.99-6.08-15.64--
1:54 PM542821.64-6.95n16.51--
12:54 PM543124.06-5.21n21.72--
11:54 AM522517.28-4.34nnw14.77--
10:54 AM472513.03-4.34nw12.17--
9:54 AM413314.13-5.21nw13.03--
8:54 AM315115.02---6.95--
7:54 AM295213.6-3.48ne6.95--
6:54 AM246815-1.74ne3.48--
5:54 AM237014.7-0.87nne3.48--
4:54 AM237014.7-0.87n3.48--
3:54 AM227615.61---4.34--
2:54 AM227415-1.74nne3.48--
12:54 AM247115.99-1.74nne5.21--
High: 46ºf @1:54 PM    Low: 25ºf @11:54 PM     Approx. Precipitation / Rain Total: in.
Time (PST)Temp. (ºf)Humidity (%)Dew Point (ºf)Barometer (inHG)Wind Speed (mph)Wind DirectionWind Gust (mph)1hr. Precip / Rain Total (in.)Snow Depth
11:54 PM256815.95-2.61ne4.34--
10:54 PM256916.29-1.74nne3.48--
9:54 PM266816.91---3.48--
7:54 PM296318-0.87ene2.61--
6:54 PM344816.4---4.34--
5:54 PM403413.92-1.74nne9.56--
4:54 PM433013.71-2.61nw9.56--
3:54 PM452914.68-3.48nw11.3--
2:54 PM453116.21-3.48nw13.03--
1:54 PM463117.08-3.48nnw11.3--
12:54 PM453317.65-2.61wnw10.43--
11:54 AM424019.45-4.34n11.3--
10:54 AM403917.06-3.48ne13.9--
9:54 AM364818.24-4.34nnw15.64--
8:54 AM326120.09-5.21n14.77--
7:54 AM306620.04-3.48nnw13.03--
6:54 AM296819.78-5.21nw14.77--
5:54 AM297522.09-5.21nnw17.38--
4:54 AM297823.02-6.95nw20.86--
3:54 AM317122.72-6.08nw15.64--
2:54 AM307422.74-5.21nw14.77--
12:54 AM326722.3-3.48nw10.43--
High: 55ºf @1:54 PM    Low: 35ºf @11:54 PM     Approx. Precipitation / Rain Total: in.
Time (PST)Temp. (ºf)Humidity (%)Dew Point (ºf)Barometer (inHG)Wind Speed (mph)Wind DirectionWind Gust (mph)1hr. Precip / Rain Total (in.)Snow Depth
11:54 PM356223.32-4.34nw13.03--
10:54 PM365521.42-3.48nw10.43--
9:54 PM375020.11-4.34nw10.43--
8:54 PM383814.68-2.61nw10.43--
7:54 PM403615.23-2.61nw11.3--
6:54 PM423315.01-4.34wnw9.56--
5:54 PM463117.08-3.48wnw10.43--
4:54 PM522214.35-3.48nw13.9--
3:54 PM541811.47-3.48wnw13.03--
2:54 PM55146.7-4.34nw16.51--
1:54 PM55158.22-6.95nw17.38--
12:54 PM55135.09-6.95nw17.38--
11:54 AM54168.85-3.48nw14.77--
10:54 AM512112.46-3.48nw13.03--
9:54 AM483722.98-3.48nnw13.9--
8:54 AM444926.08-3.48n9.56--
7:54 AM377429.5-3.48e7.82--
6:54 AM367328.2-4.34n11.3--
5:54 AM387430.46-3.48nw13.9--
4:54 AM397230.75-3.48nw14.77--
3:54 AM417433.36-4.34nw13.03--
2:54 AM417734.35-2.61wnw10.43--
12:54 AM436933.54-2.61wnw6.95--
High: 58ºf @2:54 PM    Low: 31ºf @6:54 AM     Approx. Precipitation / Rain Total: in.
Time (PST)Temp. (ºf)Humidity (%)Dew Point (ºf)Barometer (inHG)Wind Speed (mph)Wind DirectionWind Gust (mph)1hr. Precip / Rain Total (in.)Snow Depth
11:54 PM466635.29-2.61nw12.17--
10:54 PM476033.84-2.61wnw14.77--
9:54 PM505534.48-3.48nnw12.17--
8:54 PM514832.01-3.48nnw13.9--
7:54 PM514530.41-4.34nnw13.9--
6:54 PM524129.04-5.21nnw12.17--
5:54 PM504529.5-2.61wnw11.3--
4:54 PM544130.84-4.34wnw12.17--
2:54 PM583530.51-4.34nw12.17--
1:54 PM564032.02-5.21nw12.17--
12:54 PM584033.82-4.34nw11.3--
11:54 AM564333.82-1.74wnw9.56--
10:54 AM534632.78-1.74wnw6.08--
9:54 AM456433.57-3.48wnw8.69--
8:54 AM397933.05-1.74nw6.08--
7:54 AM349031.38---7.82--
6:54 AM319429.48-0.87nw3.48--
5:54 AM348529.97-1.74ese6.95--
4:54 AM348730.55-1.74ene12.17--
3:54 AM329029.41---4.34--
2:54 AM319128.69-0.87e5.21--
1:54 AM319028.42-1.74ne4.34--
12:54 AM338729.56-0.87ene3.48--
High: 50ºf @12:54 PM    Low: 31ºf @12:54 AM     Approx. Precipitation / Rain Total: in.
Time (PST)Temp. (ºf)Humidity (%)Dew Point (ºf)Barometer (inHG)Wind Speed (mph)Wind DirectionWind Gust (mph)1hr. Precip / Rain Total (in.)Snow Depth
11:54 PM358631.24---2.61--
10:54 PM377931.1---5.21--
9:54 PM378031.41---6.08--
8:54 PM387530.79-1.74nne5.21--
7:54 PM407131.37-2.61nne8.69--
6:54 PM416831.26-1.74nnw10.43--
5:54 PM436431.67-4.34n13.03--
4:54 PM455931.54-3.48nnw16.51--
3:54 PM465530.75-6.08wnw18.25--
2:54 PM474928.84-6.08nw15.64--
1:54 PM485030.26-3.48nnw14.77--
12:54 PM504730.57-4.34nw17.38--
11:54 AM464827.42-4.34nw15.64--
10:54 AM444725.08-4.34nw13.03--
9:54 AM425527.02-3.48wnw11.3--
8:54 AM396026.31-3.48nne9.56--
7:54 AM347025.26-1.74nnw11.3--
6:54 AM327424.67-2.61n8.69--
5:54 AM337525.96-2.61nne8.69--
4:54 AM327825.93-0.87wnw7.82--
3:54 AM318025.57-0.87ne6.08--
2:54 AM327625.31-0.87nne7.82--
1:54 AM327524.99-2.61nw6.95--
12:54 AM317724.65-0.87nnw8.69--
High: 46ºf @1:54 PM    Low: 31ºf @6:54 AM     Approx. Precipitation / Rain Total: in.
Time (PST)Temp. (ºf)Humidity (%)Dew Point (ºf)Barometer (inHG)Wind Speed (mph)Wind DirectionWind Gust (mph)1hr. Precip / Rain Total (in.)Snow Depth
11:54 PM327725.62-2.61wnw7.82--
10:54 PM337726.59-1.74nw6.95--
9:54 PM337425.63-1.74wnw9.56--
8:54 PM356825.52-2.61nnw9.56--
7:54 PM376124.82-2.61nw12.17--
6:54 PM376225.21-1.74wnw8.69--
5:54 PM395725.07-3.48nnw12.17--
4:54 PM405424.71-3.48nw10.43--
3:54 PM435226.59-4.34nw12.17--
2:54 PM425727.88-3.48nnw13.03--
1:54 PM464927.92-4.34nnw16.51--
12:54 PM464927.92-4.34nw13.9--
11:54 AM455328.91-3.48nw16.51--
10:54 AM435628.39-4.34nw14.77--
9:54 AM376727.08-4.34nnw12.17--
8:54 AM396929.71-1.74nw10.43--
7:54 AM329430.47-1.74wnw9.56--
6:54 AM319429.48-1.74nnw6.95--
5:54 AM319630-0.87nw5.21--
4:54 AM329731.25---1.74--
3:54 AM329731.25---4.34--
2:54 AM329831.5-1.74se4.34--
1:54 AM319730.25---1.74--
12:54 AM339732.24-0.87sw8.69--
High: 41ºf @11:54 AM    Low: 31ºf @3:54 AM     Approx. Precipitation / Rain Total: in.
Time (PST)Temp. (ºf)Humidity (%)Dew Point (ºf)Barometer (inHG)Wind Speed (mph)Wind DirectionWind Gust (mph)1hr. Precip / Rain Total (in.)Snow Depth
11:54 PM349432.46-2.61se9.56--
10:54 PM359032.37-4.34ese12.17--
9:54 PM368632.23-5.21ese12.17--
8:54 PM368933.08-6.95se13.03--
7:54 PM369233.91-6.95se13.03--
6:54 PM369133.63-6.08e12.17--
5:54 PM369434.44-4.34se9.56--
4:54 PM379234.9-3.48se10.43--
3:54 PM408435.56-5.21se11.3--
2:54 PM398635.17-5.21se14.77--
12:54 PM398735.46-8.69se17.38--
11:54 AM418336.24-7.82ese15.64--
10:54 AM408435.56-6.08se13.03--
9:54 AM398835.75-2.61se7.82--
8:54 AM379034.34-2.61se8.69--
6:54 AM319830.5---2.61--
5:54 AM329831.5---4.34--
4:54 AM329831.5---3.48--
3:54 AM319830.5---4.34--
2:54 AM329831.5-1.74sse6.95--
12:54 AM339331.2-3.48se10.43--
High: 35ºf @2:54 PM    Low: 26ºf @1:54 AM     Approx. Precipitation / Rain Total: in.
Time (PST)Temp. (ºf)Humidity (%)Dew Point (ºf)Barometer (inHG)Wind Speed (mph)Wind DirectionWind Gust (mph)1hr. Precip / Rain Total (in.)Snow Depth
11:54 PM329430.47-6.95ese15.64--
10:54 PM329530.73-8.69ese15.64--
9:54 PM329731.25-8.69ese15.64--
8:54 PM329630.99-7.82ese16.51--
7:54 PM339331.2-7.82se17.38--
6:54 PM339130.67-9.56se19.99--
5:54 PM349131.65-9.56ese16.51--
4:54 PM359032.37-6.08se18.25--
3:54 PM349231.92-7.82se13.03--
2:54 PM358932.09-5.21se12.17--
1:54 PM349031.38-3.48sse9.56--
12:54 PM348730.55-4.34se8.69--
11:54 AM339531.73-2.61sse6.95--
10:54 AM339431.47-2.61sse11.3--
8:54 AM346824.57-0.87ese3.48--
7:54 AM336923.96---3.48--
4:54 AM307121.76---4.34--
3:54 AM297522.09---4.34--
2:54 AM287220.16-0.87n3.48--
1:54 AM267719.8-0.87nne4.34--
12:54 AM267820.1-0.87ne3.48--
High: 45ºf @1:54 PM    Low: 28ºf @11:54 PM     Approx. Precipitation / Rain Total: in.
Time (PST)Temp. (ºf)Humidity (%)Dew Point (ºf)Barometer (inHG)Wind Speed (mph)Wind DirectionWind Gust (mph)1hr. Precip / Rain Total (in.)Snow Depth
11:54 PM287420.8-1.74nne4.34--
10:54 PM307422.74-0.87e3.48--
9:54 PM317122.72-0.87nnw3.48--
8:54 PM346121.98-2.61ne5.21--
7:54 PM355721.33---3.48--
6:54 PM374919.64---4.34--
5:54 PM394016.75-1.74nw7.82--
4:54 PM413515.47-1.74nnw8.69--
3:54 PM423315.01-3.48n8.69--
2:54 PM433416.57-4.34n11.3--
1:54 PM453418.34-4.34n11.3--
12:54 PM424220.59-5.21nne13.03--
11:54 AM424421.69-3.48n13.9--
10:54 AM394720.5-4.34-16.51--
9:54 AM375421.92-6.08nnw15.64--
8:54 AM355821.74-5.21nw18.25--
6:54 AM307322.41-4.34nnw13.9--
5:54 AM307723.68-3.48nw18.25--
4:54 AM326421.22-5.21nnw17.38--
3:54 AM326621.95-4.34nnw15.64--
2:54 AM346724.21-4.34nw16.51--
1:54 AM346924.92-5.21nnw15.64--
12:54 AM346924.92-2.61nw13.03--
High: 45ºf @12:54 PM    Low: 31ºf @12:54 AM     Approx. Precipitation / Rain Total: in.
Time (PST)Temp. (ºf)Humidity (%)Dew Point (ºf)Barometer (inHG)Wind Speed (mph)Wind DirectionWind Gust (mph)1hr. Precip / Rain Total (in.)Snow Depth
11:54 PM356624.81-4.34nnw13.03--
10:54 PM356624.81-3.48n9.56--
9:54 PM356624.81-0.87wnw8.69--
8:54 PM366324.64-2.61nnw12.17--
7:54 PM376024.42-1.74nnw8.69--
6:54 PM385724.14-2.61nw10.43--
5:54 PM395825.49-3.48nnw10.43--
4:54 PM415325.2-2.61nw13.03--
3:54 PM434623.65-3.48nw14.77--
2:54 PM444725.08-4.34n12.17--
1:54 PM454524.95-2.61nnw17.38--
12:54 PM454524.95-5.21n13.9--
11:54 AM454625.48-4.34nw13.03--
9:54 AM425426.57-5.21nnw14.77--
8:54 AM395725.07-3.48nnw16.51--
5:54 AM366625.76-5.21n16.51--
2:54 AM348128.79-1.74nw7.82--
1:54 AM329831.5-1.74nw5.21--
12:54 AM319830.5---1.74--
High: 43ºf @2:54 PM    Low: 31ºf @11:54 PM     Approx. Precipitation / Rain Total: in.
Time (PST)Temp. (ºf)Humidity (%)Dew Point (ºf)Barometer (inHG)Wind Speed (mph)Wind DirectionWind Gust (mph)1hr. Precip / Rain Total (in.)Snow Depth
11:54 PM319830.5---2.61--
10:54 PM329831.5---2.61--
9:54 PM329831.5---2.61--
8:54 PM329630.99-0.87ne4.34--
7:54 PM349733.24-1.74ne4.34--
6:54 PM379435.44---3.48--
5:54 PM409237.87---7.82--
4:54 PM428838.71-3.48ese8.69--
3:54 PM428838.71-4.34se9.56--
2:54 PM438538.8-3.48se12.17--
1:54 PM428738.42-4.34ese10.43--
12:54 PM419038.3-2.61se9.56--
11:54 AM389536.7-3.48se10.43--
10:54 AM369935.75-1.74sse7.82--
6:54 AM339832.5---3.48--
5:54 AM359132.64-1.74sse11.3--
4:54 AM358932.09-5.21se11.3--
3:54 AM349131.65-1.74se10.43--
2:54 AM349131.65-6.08ese14.77--
1:54 AM349031.38-8.69ese16.51--
12:54 AM349131.65-6.95ese12.17--
High: 37ºf @3:54 PM    Low: 28ºf @12:54 AM     Approx. Precipitation / Rain Total: in.
Time (PST)Temp. (ºf)Humidity (%)Dew Point (ºf)Barometer (inHG)Wind Speed (mph)Wind DirectionWind Gust (mph)1hr. Precip / Rain Total (in.)Snow Depth
11:54 PM348931.11-6.95se13.03--
10:54 PM339230.93-7.82ese13.9--
9:54 PM339331.2-6.95se14.77--
8:54 PM339631.99-4.34se10.43--
7:54 PM339531.73-5.21se11.3--
6:54 PM349332.19-4.34se12.17--
5:54 PM349131.65-2.61se13.03--
4:54 PM358530.96-4.34se13.9--
3:54 PM377830.79-5.21se13.03--
2:54 PM367829.82-6.95se12.17--
1:54 PM367729.5-6.08se12.17--
12:54 PM378031.41-2.61sse11.3--
11:54 AM349031.38-1.74sse5.21--
10:54 AM349031.38-0.87ssw5.21--
9:54 AM339030.39---4.34--
8:54 AM328929.13---2.61--
7:54 AM318928.15---2.61--
6:54 AM318727.59---1.74--
5:54 AM308325.48---3.48--
4:54 AM308526.05-1.74ne3.48--
3:54 AM298725.63-0.87ne3.48--
2:54 AM298625.35-0.87ne3.48--
1:54 AM288624.36---5.21--
12:54 AM288524.09---3.48--
High: 47ºf @11:54 AM    Low: 32ºf @11:54 PM     Approx. Precipitation / Rain Total: in.
Time (PST)Temp. (ºf)Humidity (%)Dew Point (ºf)Barometer (inHG)Wind Speed (mph)Wind DirectionWind Gust (mph)1hr. Precip / Rain Total (in.)Snow Depth
11:54 PM327926.24-1.74wnw6.95--
10:54 PM327926.24-1.74wnw8.69--
9:54 PM356624.81-2.61wnw9.56--
8:54 PM366023.48-2.61nw11.3--
7:54 PM356323.7-0.87nw5.21--
6:54 PM366324.64-0.87nw6.95--
5:54 PM405525.15-2.61n10.43--
4:54 PM434925.16-3.48n11.3--
3:54 PM454524.95-2.61nw13.9--
2:54 PM464626.39-4.34n13.03--
1:54 PM464927.92-3.48nnw10.43--
12:54 PM445428.44-3.48n15.64--
11:54 AM475431.23-4.34n14.77--
10:54 AM455831.12-3.48n12.17--
9:54 AM426531.1-3.48nnw13.9--
8:54 AM407432.39-4.34n13.03--
7:54 AM379034.34-2.61nw7.82--
6:54 AM359834.49---6.08--
5:54 AM359834.49-0.87nw4.34--
3:54 AM389536.7-5.21e9.56--
2:54 AM389536.7-5.21se13.03--
1:54 AM399537.69-6.08se13.9--
12:54 AM399838.48-5.21se11.3--
High: 50ºf @11:54 AM    Low: 29ºf @6:54 AM     Approx. Precipitation / Rain Total: in.
Time (PST)Temp. (ºf)Humidity (%)Dew Point (ºf)Barometer (inHG)Wind Speed (mph)Wind DirectionWind Gust (mph)1hr. Precip / Rain Total (in.)Snow Depth
11:54 PM399838.48-3.48se6.95--
10:54 PM399838.48-0.87ssw3.48--
9:54 PM399838.48---2.61--
8:54 PM399337.15-1.74se6.95--
7:54 PM399136.6-2.61ese8.69--
5:54 PM418235.93-6.08se12.17--
4:54 PM437736.29-3.48se8.69--
3:54 PM447335.91-4.34ese11.3--
2:54 PM446934.49-6.08se13.03--
1:54 PM465731.63-4.34se9.56--
12:54 PM475833-2.61sse6.95--
11:54 AM505434.02-1.74se6.95--
10:54 AM466032.9-1.74sse4.34--
9:54 AM437033.9-1.74se4.34--
8:54 AM369033.36-0.87ese2.61--
7:54 AM309729.25-0.87ne4.34--
6:54 AM299828.51---3.48--
5:54 AM309729.25-2.61ne4.34--
3:54 AM339932.75-0.87ese7.82--
2:54 AM329931.75-1.74nne4.34--
1:54 AM319930.75---2.61--
12:54 AM339932.75-1.74wnw3.48--
High: 44ºf @7:54 AM    Low: 31ºf @12:54 AM     Approx. Precipitation / Rain Total: in.
Time (PST)Temp. (ºf)Humidity (%)Dew Point (ºf)Barometer (inHG)Wind Speed (mph)Wind DirectionWind Gust (mph)1hr. Precip / Rain Total (in.)Snow Depth
11:54 PM359934.75-0.87sse4.34--
10:54 PM379936.75-0.87e2.61--
9:54 PM379836.49---1.74--
8:54 PM408937.02-3.48se8.69--
7:54 PM399136.6-4.34ese9.56--
6:54 PM399136.6-6.08e13.03--
5:54 PM399136.6-6.08ese12.17--
4:54 PM399236.88-6.95ese13.03--
3:54 PM409137.59-7.82ese14.77--
2:54 PM408937.02-8.69se16.51--
1:54 PM419038.3-7.82ese17.38--
12:54 PM419339.13-7.82se16.51--
11:54 AM429239.85-6.95se16.51--
10:54 AM439140.56-6.95se13.9--
9:54 AM429640.94-4.34se11.3--
8:54 AM438739.4-6.08ese12.17--
7:54 AM448138.55-4.34ese11.3--
6:54 AM428136.6-3.48se7.82--
5:54 AM359734.24-0.87se6.08--
4:54 AM349733.24---1.74--
3:54 AM339732.24---1.74--
2:54 AM329731.25---1.74--
1:54 AM329630.99-0.87ene3.48--
12:54 AM319630---2.61--
High: 58ºf @12:54 PM    Low: 28ºf @5:54 AM     Approx. Precipitation / Rain Total: in.
Time (PST)Temp. (ºf)Humidity (%)Dew Point (ºf)Barometer (inHG)Wind Speed (mph)Wind DirectionWind Gust (mph)1hr. Precip / Rain Total (in.)Snow Depth
11:54 PM319529.74-1.74ne2.61--
10:54 PM319329.22---2.61--
9:54 PM338930.12---4.34--
8:54 PM358530.96-0.87nne4.34--
7:54 PM378031.41-1.74nne4.34--
6:54 PM407532.73-1.74e4.34--
5:54 PM456634.33---3.48--
4:54 PM515434.95---7.82--
3:54 PM544734.23-1.74w9.56--
2:54 PM554634.6-3.48nw9.56--
1:54 PM574334.73-3.48wnw8.69--
12:54 PM584436.21-1.74w7.82--
11:54 AM564635.51-1.74wnw6.08--
10:54 AM535235.85---4.34--
8:54 AM427735.32---3.48--
7:54 AM299628.01-1.74ne4.34--
6:54 AM289526.76-1.74ne4.34--
5:54 AM289526.76-1.74ene4.34--
4:54 AM299527.75-1.74ene4.34--
3:54 AM299427.49-1.74ne4.34--
2:54 AM299527.75-2.61ne5.21--
1:54 AM299427.49-1.74ne3.48--
12:54 AM319028.42-1.74nne4.34--
High: 52ºf @10:54 AM    Low: 28ºf @3:54 AM     Approx. Precipitation / Rain Total: in.
Time (PST)Temp. (ºf)Humidity (%)Dew Point (ºf)Barometer (inHG)Wind Speed (mph)Wind DirectionWind Gust (mph)1hr. Precip / Rain Total (in.)Snow Depth
11:54 PM338829.84-0.87nne3.48--
10:54 PM348529.97-1.74ne3.48--
9:54 PM378031.41-0.87ne4.34--
7:54 PM407131.37-0.87nw2.61--
6:54 PM407332.06---2.61--
5:54 PM446332.23-0.87nne2.61--
4:54 PM475129.82---4.34--
3:54 PM494729.66-0.87ssw6.08--
2:54 PM514630.96-0.87s7.82--
1:54 PM505132.59-2.61se7.82--
12:54 PM514630.96-2.61sse9.56--
11:54 AM514630.96-2.61sse9.56--
10:54 AM525234.93-2.61s6.08--
9:54 AM436532.05---0.87--
8:54 AM367729.5---2.61--
7:54 AM299126.71---3.48--
6:54 AM299126.71-0.87nne1.74--
5:54 AM299126.71---2.61--
3:54 AM289025.45-0.87ne2.61--
1:54 AM308726.61---2.61--
12:54 AM338228.12---2.61--
High: 54ºf @12:54 PM    Low: 26ºf @5:54 AM     Approx. Precipitation / Rain Total: in.
Time (PST)Temp. (ºf)Humidity (%)Dew Point (ºf)Barometer (inHG)Wind Speed (mph)Wind DirectionWind Gust (mph)1hr. Precip / Rain Total (in.)Snow Depth
11:54 PM357728.53---1.74--
10:54 PM347526.92-0.87ne2.61--
9:54 PM357126.56---3.48--
8:54 PM357226.9-0.87nnw3.48--
6:54 PM406228.05-1.74ne3.48--
5:54 PM435025.65-0.87ene3.48--
4:54 PM473722.09-1.74sse6.08--
3:54 PM493119.7-1.74sse6.08--
2:54 PM502515.58-2.61sse8.69--
1:54 PM512415.5-2.61se6.08--
12:54 PM542720.79-0.87s4.34--
11:54 AM522719.07-0.87se2.61--
10:54 AM493824.51---1.74--
9:54 AM435025.65---1.74--
8:54 AM326621.95-1.74ne3.48--
7:54 AM267519.18-0.87n4.34--
6:54 AM267318.55-2.61ne5.21--
5:54 AM267218.23-2.61ne4.34--
3:54 AM287119.83-1.74ne4.34--
2:54 AM277118.87-2.61ne4.34--
1:54 AM267017.58-1.74ene4.34--
12:54 AM276918.21-2.61ene6.08--
High: 64ºf @12:54 PM    Low: 28ºf @11:54 PM     Approx. Precipitation / Rain Total: in.
Time (PST)Temp. (ºf)Humidity (%)Dew Point (ºf)Barometer (inHG)Wind Speed (mph)Wind DirectionWind Gust (mph)1hr. Precip / Rain Total (in.)Snow Depth
11:54 PM287119.83-1.74ne5.21--
10:54 PM297120.79-3.48ne4.34--
9:54 PM316620.99-2.61ene3.48--
8:54 PM326621.95-1.74ene3.48--
7:54 PM355721.33-2.61ne4.34--
6:54 PM386125.76-0.87ese6.95--
5:54 PM455127.97-1.74nw6.95--
4:54 PM522819.92-2.61nw9.56--
3:54 PM562318.74-2.61wnw7.82--
2:54 PM592018-2.61wnw8.69--
1:54 PM622020.48-3.48nw10.43--
12:54 PM641616.92-1.74w6.95--
11:54 AM601917.63-3.48nw7.82--
10:54 AM552923.34-2.61nw7.82--
9:54 AM503624.11-2.61nw10.43--
8:54 AM415726.95-2.61nne8.69--
7:54 AM337224.98-2.61nne10.43--
6:54 AM357026.22-3.48nnw12.17--
5:54 AM337325.31-2.61nne10.43--
4:54 AM347426.6-2.61n7.82--
3:54 AM357226.9-2.61nne7.82--
2:54 AM366726.12-2.61nne8.69--
1:54 AM356825.52-1.74ene6.08--
12:54 AM386025.37-1.74nne6.95--
High: 60ºf @2:54 PM    Low: 31ºf @5:54 AM     Approx. Precipitation / Rain Total: in.
Time (PST)Temp. (ºf)Humidity (%)Dew Point (ºf)Barometer (inHG)Wind Speed (mph)Wind DirectionWind Gust (mph)1hr. Precip / Rain Total (in.)Snow Depth
11:54 PM415726.95-2.61nnw9.56--
10:54 PM415626.52-2.61n9.56--
9:54 PM416028.19-2.61nnw8.69--
8:54 PM406529.2-1.74nnw6.95--
7:54 PM415726.95-2.61nnw6.95--
6:54 PM376927.79-1.74ne4.34--
5:54 PM454927-0.87n6.08--
4:54 PM513826.3-1.74nw8.69--
3:54 PM534431.68-2.61nw10.43--
2:54 PM602322.1-3.48nnw10.43--
1:54 PM593430.67-2.61nw10.43--
12:54 PM563428.03-4.34nw11.3--
11:54 AM544030.23-4.34nw10.43--
10:54 AM485532.61-5.21nw12.17--
9:54 AM446332.23-3.48nw11.3--
8:54 AM407432.39-3.48n9.56--
7:54 AM329029.41-2.61nnw11.3--
6:54 AM319429.48-3.48nnw8.69--
5:54 AM319529.74-1.74nne6.08--
4:54 AM329229.94-2.61n9.56--
3:54 AM338829.84-1.74nne8.69--
2:54 AM339030.39-3.48nnw10.43--
1:54 AM318928.15-1.74nne5.21--
12:54 AM338629.28-1.74nne6.95--
High: 53ºf @11:54 AM    Low: 29ºf @1:54 AM     Approx. Precipitation / Rain Total: in.
Time (PST)Temp. (ºf)Humidity (%)Dew Point (ºf)Barometer (inHG)Wind Speed (mph)Wind DirectionWind Gust (mph)1hr. Precip / Rain Total (in.)Snow Depth
11:54 PM348529.97-1.74nne5.21--
10:54 PM348630.26-1.74ene6.95--
9:54 PM368431.64-3.48nne7.82--
8:54 PM368632.23-1.74nw6.08--
7:54 PM388433.6-2.61n6.95--
6:54 PM398233.98-3.48ne7.82--
5:54 PM417834.68-1.74nne10.43--
4:54 PM446934.49-1.74n11.3--
3:54 PM466434.51-3.48wnw12.17--
2:54 PM485934.36-5.21wnw13.9--
1:54 PM495433.09-5.21wnw15.64--
12:54 PM534230.53-5.21nw18.25--
11:54 AM533626.77-4.34nw13.9--
10:54 AM514027.54-4.34wnw13.03--
9:54 AM484226.02-3.48wnw10.43--
8:54 AM386728.03-3.48wnw13.9--
7:54 AM318426.74-3.48nw13.03--
6:54 AM318025.57-3.48nw12.17--
5:54 AM317323.38-1.74nne9.56--
4:54 AM307623.37-1.74ne9.56--
3:54 AM337425.63-2.61nnw8.69--
2:54 AM337124.64-1.74n9.56--
1:54 AM298123.91-1.74nne6.95--
12:54 AM298525.07-2.61ene5.21--
High: 38ºf @5:54 PM    Low: 31ºf @11:54 PM     Approx. Precipitation / Rain Total: in.
Time (PST)Temp. (ºf)Humidity (%)Dew Point (ºf)Barometer (inHG)Wind Speed (mph)Wind DirectionWind Gust (mph)1hr. Precip / Rain Total (in.)Snow Depth
11:54 PM317524.02-2.61ne6.08--
10:54 PM327123.68-2.61nne6.95--
9:54 PM356323.7-1.74n5.21--
8:54 PM337024.3-1.74nnw5.21--
7:54 PM336823.61-0.87n5.21--
6:54 PM375020.11-3.48nne9.56--
5:54 PM384820.07-2.61n11.3--
Past Weather Disclaimer Note regarding "Approx. Precipitation / Rain Total"

Currently

Fair 48°F
30.13in
Barometer
44%
Humidity
North 0.0mph
Wind
Fair

Past Weather Nearby

More Local Information

Bookmark and Share

Go Ad Free - Become a Member